KA4JMC Weather Reports


Display with metric or nautical units.
time (UTC)temp
F
wind
direction
speed
MPH
gust
MPH
rain 1hr
in
rain 24hr
in
rain mn
in
humidity
%
barometer
mb
20260507194513 54 332 0.0 0.0 0.00 0.00 0.00 983.8
20260507194023 54 332 0.0 0.0 0.00 0.00 0.00 983.8
20260507193516 54 332 0.0 0.0 0.00 0.00 0.00 983.8
20260507193042 54 321 0.0 0.0 0.00 0.00 0.00 983.8
20260507192522 54 342 0.0 0.0 0.00 0.00 0.00 983.8
20260507192016 55 338 0.0 0.0 0.00 0.00 0.00 983.8
20260507191515 56 199 0.0 0.0 0.00 0.00 0.00 984.8
20260507191017 56 237 3.0 3.0 0.00 0.00 0.00 984.8
20260507190523 57 243 0.0 0.0 0.00 0.00 0.00 984.8
20260507190015 57 235 0.0 0.0 0.00 0.00 0.00 984.8
20260507185513 57 217 0.0 0.0 0.00 0.00 0.00 984.8
20260507185013 57 236 2.0 0.0 0.00 0.00 0.00 984.8
20260507184513 58 217 6.0 5.0 0.00 0.00 0.00 983.8
20260507184018 59 228 11.0 15.0 0.00 0.00 0.00 983.8
20260507183517 60 218 4.0 6.0 0.00 0.00 0.00 983.8
20260507183015 61 238 4.0 6.0 0.00 0.00 0.00 984.8
20260507182516 61 235 5.0 6.0 0.00 0.00 0.00 984.8
20260507182034 61 218 3.0 0.0 0.00 0.00 0.00 984.8
20260507181515 60 203 4.0 3.0 0.00 0.00 0.00 984.8
20260507181014 59 226 2.0 6.0 0.00 0.00 0.00 984.8
20260507180514 60 240 0.0 0.0 0.00 0.00 0.00 984.8
20260507180018 60 234 3.0 6.0 0.00 0.00 0.00 984.8
20260507175514 59 220 5.0 5.0 0.00 0.00 0.00 984.8
20260507175035 58 224 6.0 3.0 0.00 0.00 0.00 984.8
20260507174518 58 235 3.0 4.0 0.00 0.00 0.00 985.8
20260507174014 59 170 3.0 4.0 0.00 0.00 0.00 985.8
20260507173515 59 234 4.0 0.0 0.00 0.00 0.00 985.8
20260507173014 59 202 3.0 2.0 0.00 0.00 0.00 985.8
20260507172517 60 177 3.0 3.0 0.00 0.00 0.00 985.8
20260507172013 60 232 6.0 4.0 0.00 0.00 0.00 985.8
20260507171513 60 250 4.0 8.0 0.00 0.00 0.00 985.8
20260507171035 61 213 4.0 6.0 0.00 0.00 0.00 985.8
20260507170513 61 170 4.0 0.0 0.00 0.00 0.00 985.8
20260507170016 61 173 3.0 3.0 0.00 0.00 0.00 985.8
20260507165513 62 193 4.0 8.0 0.00 0.00 0.00 985.8
20260507165014 61 227 4.0 3.0 0.00 0.00 0.00 985.8
20260507164516 62 227 4.0 6.0 0.00 0.00 0.00 985.8
20260507164013 62 105 5.0 5.0 0.00 0.00 0.00 985.8
20260507163514 61 253 2.0 0.0 0.00 0.00 0.00 985.8
20260507163018 61 226 4.0 3.0 0.00 0.00 0.00 985.8
20260507162519 62 234 0.0 3.0 0.00 0.00 0.00 985.8
20260507162024 62 196 4.0 4.0 0.00 0.00 0.00 985.8
20260507161517 61 230 3.0 5.0 0.00 0.00 0.00 986.8
20260507161017 60 229 4.0 8.0 0.00 0.00 0.00 986.8
20260507160514 60 218 4.0 3.0 0.00 0.00 0.00 986.8
20260507160024 60 223 2.0 4.0 0.00 0.00 0.00 986.8
20260507155514 60 239 3.0 6.0 0.00 0.00 0.00 986.8
20260507155019 59 253 5.0 8.0 0.00 0.00 0.00 986.8
20260507154516 59 221 0.0 0.0 0.00 0.00 0.00 986.8
20260507154018 59 194 3.0 0.0 0.00 0.00 0.00 986.8
20260507153547 58 139 4.0 5.0 0.00 0.00 0.00 986.8
20260507153041 58 201 0.0 3.0 0.00 0.00 0.00 986.8
20260507152537 57 239 3.0 2.0 0.00 0.00 0.00 986.8
20260507152014 57 200 2.0 0.0 0.00 0.00 0.00 986.8
20260507151514 57 207 0.0 3.0 0.00 0.00 0.00 987.8
20260507151023 56 250 0.0 0.0 0.00 0.00 0.00 987.8
20260507150535 56 342 0.0 2.0 0.00 0.00 0.00 987.8
20260507150014 56 218 0.0 0.0 0.00 0.00 0.00 987.8
20260507145516 55 231 0.0 4.0 0.00 0.00 0.00 987.8
20260507145014 54 328 0.0 3.0 0.00 0.00 0.00 987.8
20260507144515 54 191 0.0 0.0 0.00 0.00 0.00 987.8
20260507144019 53 316 4.0 4.0 0.00 0.00 0.00 987.8
20260507143538 52 196 3.0 4.0 0.00 0.00 0.00 987.8
20260507143014 52 270 0.0 5.0 0.00 0.00 0.00 987.8
20260507142535 51 216 3.0 0.0 0.00 0.00 0.00 987.8
20260507142016 50 203 3.0 2.0 0.00 0.00 0.00 987.8
20260507141542 50 214 0.0 6.0 0.00 0.00 0.00 987.8
20260507141017 50 222 0.0 0.0 0.00 0.00 0.00 987.8
20260507140519 50 240 0.0 4.0 0.00 0.00 0.00 987.8
20260507140014 49 218 0.0 0.0 0.00 0.00 0.00 987.8
20260507135514 48 232 2.0 0.0 0.00 0.00 0.00 987.8
20260507135013 47 209 0.0 0.0 0.00 0.00 0.00 987.8
20260507134514 46 216 0.0 0.0 0.00 0.00 0.00 987.8
20260507134018 45 206 0.0 0.0 0.00 0.00 0.00 987.8
20260507133514 44 193 0.0 0.0 0.00 0.00 0.00 987.8
20260507133015 43 224 0.0 0.0 0.00 0.00 0.00 987.8
20260507132518 42 220 0.0 0.0 0.00 0.00 0.00 987.8
20260507132034 42 225 0.0 2.0 0.00 0.00 0.00 987.8
20260507131514 42 201 0.0 0.0 0.00 0.00 0.00 988.8
20260507131013 42 223 0.0 0.0 0.00 0.00 0.00 988.8
20260507130521 42 224 0.0 0.0 0.00 0.00 0.00 988.8
20260507130021 41 225 0.0 0.0 0.00 0.00 0.00 987.8
20260507125514 41 228 0.0 3.0 0.00 0.00 0.00 987.8
20260507125025 41 232 0.0 3.0 0.00 0.00 0.00 987.8
20260507124517 40 220 0.0 0.0 0.00 0.00 0.00 987.8
20260507124014 40 237 0.0 0.0 0.00 0.00 0.00 987.8
20260507123515 40 229 0.0 0.0 0.00 0.00 0.00 987.8
20260507123037 40 229 0.0 0.0 0.00 0.00 0.00 987.8
20260507122513 39 229 0.0 0.0 0.00 0.00 0.00 987.8
20260507122014 39 223 0.0 0.0 0.00 0.00 0.00 987.8
20260507121541 39 230 0.0 0.0 0.00 0.00 0.00 987.8
20260507121013 38 228 0.0 0.0 0.00 0.00 0.00 987.8
20260507120521 38 243 0.0 0.0 0.00 0.00 0.00 987.8
20260507120014 37 243 0.0 3.0 0.00 0.00 0.00 987.8
20260507115514 36 243 0.0 0.0 0.00 0.00 0.00 987.8
20260507115015 36 243 0.0 2.0 0.00 0.00 0.00 987.8
20260507114519 35 253 0.0 0.0 0.00 0.00 0.00 987.8
20260507114014 35 253 0.0 0.0 0.00 0.00 0.00 987.8
20260507113516 34 255 0.0 0.0 0.00 0.00 0.00 987.8
20260507113015 34 255 0.0 0.0 0.00 0.00 0.00 986.8
20260507112515 33 255 0.0 0.0 0.00 0.00 0.00 986.8
20260507112014 33 255 0.0 0.0 0.00 0.00 0.00 986.8
20260507111514 33 255 0.0 0.0 0.00 0.00 0.00 987.8
20260507111035 33 255 0.0 0.0 0.00 0.00 0.00 987.8
20260507110514 33 255 0.0 0.0 0.00 0.00 0.00 987.8
20260507110017 33 255 0.0 0.0 0.00 0.00 0.00 986.8
20260507105523 32 255 0.0 0.0 0.00 0.00 0.00 986.8
20260507105034 32 255 0.0 0.0 0.00 0.00 0.00 986.8
20260507104521 32 255 0.0 0.0 0.00 0.00 0.00 986.8
20260507104014 32 255 0.0 0.0 0.00 0.00 0.00 986.8
20260507103513 32 255 0.0 0.0 0.00 0.00 0.00 986.8
20260507103015 32 255 0.0 0.0 0.00 0.00 0.00 986.8
20260507102515 32 255 0.0 0.0 0.00 0.00 0.00 986.8
20260507102016 32 255 0.0 0.0 0.00 0.00 0.00 986.8
20260507101516 32 255 0.0 0.0 0.00 0.00 0.00 986.8
20260507101022 32 255 0.0 0.0 0.00 0.00 0.00 986.8
20260507100514 32 255 0.0 0.0 0.00 0.00 0.00 986.8
20260507100015 32 255 0.0 0.0 0.00 0.00 0.00 986.8
20260507095514 32 255 0.0 0.0 0.00 0.00 0.00 986.8
20260507095015 32 255 0.0 0.0 0.00 0.00 0.00 986.8
20260507094514 32 255 0.0 0.0 0.00 0.00 0.00 986.8
20260507094015 32 255 0.0 0.0 0.00 0.00 0.00 986.8
20260507093514 33 255 0.0 0.0 0.00 0.00 0.00 986.8
20260507093036 33 255 0.0 0.0 0.00 0.00 0.00 987.8
20260507092519 33 255 0.0 0.0 0.00 0.00 0.00 987.8
20260507092013 33 255 0.0 0.0 0.00 0.00 0.00 987.8
20260507091517 33 255 0.0 0.0 0.00 0.00 0.00 987.8
20260507091014 33 255 0.0 0.0 0.00 0.00 0.00 987.8
20260507090515 33 255 0.0 0.0 0.00 0.00 0.00 987.8
20260507090013 33 255 0.0 0.0 0.00 0.00 0.00 987.8
20260507085513 33 255 0.0 0.0 0.00 0.00 0.00 987.8
20260507085013 33 255 0.0 0.0 0.00 0.00 0.00 987.8
20260507084513 33 255 0.0 0.0 0.00 0.00 0.00 986.8
20260507084013 33 255 0.0 0.0 0.00 0.00 0.00 986.8
20260507083523 33 255 0.0 0.0 0.00 0.00 0.00 986.8
20260507083015 33 255 0.0 0.0 0.00 0.00 0.00 986.8
20260507082518 33 255 0.0 0.0 0.00 0.00 0.00 986.8
20260507082013 33 255 0.0 0.0 0.00 0.00 0.00 986.8
20260507081514 33 255 0.0 0.0 0.00 0.00 0.00 987.8
20260507081035 33 255 0.0 0.0 0.00 0.00 0.00 987.8
20260507080513 33 255 0.0 0.0 0.00 0.00 0.00 987.8
20260507080015 33 255 0.0 0.0 0.00 0.00 0.00 986.8
20260507075514 33 255 0.0 0.0 0.00 0.00 0.00 986.8
20260507075013 33 255 0.0 0.0 0.00 0.00 0.00 986.8
20260507074513 34 255 0.0 0.0 0.00 0.00 0.00 986.8
20260507074013 34 255 0.0 0.0 0.00 0.00 0.00 986.8
20260507073515 34 255 0.0 0.0 0.00 0.00 0.00 986.8
20260507073037 35 255 0.0 0.0 0.00 0.00 0.00 987.8
20260507072514 35 255 0.0 0.0 0.00 0.00 0.00 987.8
20260507072013 35 255 0.0 0.0 0.00 0.00 0.00 987.8
20260507071514 35 255 0.0 0.0 0.00 0.00 0.00 987.8
20260507071014 35 255 0.0 0.0 0.00 0.00 0.00 987.8
20260507070541 35 255 0.0 0.0 0.00 0.00 0.00 987.8
20260507070014 35 255 0.0 0.0 0.00 0.00 0.00 987.8
20260507065517 35 255 0.0 0.0 0.00 0.00 0.00 987.8
20260507065014 35 255 0.0 0.0 0.00 0.00 0.00 987.8
20260507064515 35 255 0.0 0.0 0.00 0.00 0.00 987.8
20260507064014 35 255 0.0 0.0 0.00 0.00 0.00 987.8
20260507063513 35 255 0.0 0.0 0.00 0.00 0.00 987.8
20260507063015 35 255 0.0 0.0 0.00 0.00 0.00 987.8
20260507062514 36 255 0.0 0.0 0.00 0.00 0.00 987.8
20260507062014 36 255 0.0 0.0 0.00 0.00 0.00 987.8
20260507061514 36 255 0.0 0.0 0.00 0.00 0.00 987.8
20260507061013 36 255 0.0 0.0 0.00 0.00 0.00 987.8
20260507060514 36 255 0.0 0.0 0.00 0.00 0.00 987.8
20260507060023 36 255 0.0 0.0 0.00 0.00 0.00 987.8
20260507055519 36 255 0.0 0.0 0.00 0.00 0.00 987.8
20260507055013 36 255 0.0 0.0 0.00 0.00 0.00 987.8
20260507054534 37 255 0.0 0.0 0.00 0.00 0.00 987.8
20260507054019 37 255 0.0 0.0 0.00 0.00 0.00 987.8
20260507053513 37 255 0.0 0.0 0.00 0.00 0.00 987.8
20260507053021 37 255 0.0 0.0 0.00 0.00 0.00 987.8
20260507052514 38 255 0.0 0.0 0.00 0.00 0.00 987.8
20260507052013 38 255 0.0 0.0 0.00 0.00 0.00 987.8
20260507051520 38 255 0.0 0.0 0.00 0.00 0.00 987.8
20260507051013 38 255 0.0 0.0 0.00 0.00 0.00 987.8
20260507050515 38 255 0.0 0.0 0.00 0.00 0.00 987.8
20260507050015 38 255 0.0 0.0 0.00 0.00 0.00 987.8
20260507045517 39 255 0.0 0.0 0.00 0.00 0.00 987.8
20260507045021 39 255 0.0 0.0 0.00 0.00 0.00 987.8
20260507044516 39 255 0.0 0.0 0.00 0.00 0.00 987.8
20260507044014 39 255 0.0 0.0 0.00 0.00 0.00 987.8
20260507043516 40 255 0.0 0.0 0.00 0.00 0.00 987.8
20260507043014 40 255 0.0 0.0 0.00 0.00 0.00 988.8
20260507042513 40 255 0.0 0.0 0.00 0.00 0.00 988.8
20260507042020 40 255 0.0 0.0 0.00 0.00 0.00 988.8
20260507041535 41 255 0.0 0.0 0.00 0.00 0.00 987.8
20260507041016 41 255 0.0 0.0 0.00 0.00 0.00 987.8
20260507040514 41 255 0.0 0.0 0.00 0.00 0.00 987.8
20260507040015 41 255 0.0 0.0 0.00 0.00 0.00 988.8
20260507035513 42 255 0.0 0.0 0.00 0.00 0.00 988.8
20260507035014 42 255 0.0 0.0 0.00 0.00 0.00 988.8
20260507034541 42 255 0.0 0.0 0.00 0.00 0.00 987.8
20260507034015 42 255 0.0 0.0 0.00 0.00 0.00 987.8
20260507033518 42 255 0.0 0.0 0.00 0.00 0.00 987.8
20260507033014 42 255 0.0 0.0 0.00 0.00 0.00 988.8
20260507032513 42 263 0.0 0.0 0.00 0.00 0.00 988.8
20260507032014 42 264 0.0 3.0 0.00 0.00 0.00 988.8
20260507031514 42 263 0.0 0.0 0.00 0.00 0.00 988.8
20260507031017 43 263 0.0 0.0 0.00 0.00 0.00 988.8
20260507030521 43 263 0.0 0.0 0.00 0.00 0.00 988.8
20260507030020 43 270 0.0 0.0 0.00 0.00 0.00 988.8
20260507025515 43 270 0.0 0.0 0.00 0.00 0.00 988.8
20260507025017 43 270 0.0 0.0 0.00 0.00 0.00 988.8
20260507024514 44 270 0.0 0.0 0.00 0.00 0.00 988.8
20260507024015 44 268 0.0 0.0 0.00 0.00 0.00 988.8
20260507023514 44 276 0.0 0.0 0.00 0.00 0.00 988.8
20260507023014 44 274 0.0 0.0 0.00 0.00 0.00 987.8
20260507022518 44 274 0.0 0.0 0.00 0.00 0.00 987.8
20260507022021 44 269 0.0 0.0 0.00 0.00 0.00 987.8
20260507021517 44 283 0.0 0.0 0.00 0.00 0.00 987.8
20260507021013 45 283 0.0 0.0 0.00 0.00 0.00 987.8
20260507020514 45 11 0.0 0.0 0.00 0.00 0.00 987.8
20260507020015 45 295 0.0 3.0 0.00 0.00 0.00 987.8
20260507015514 45 337 0.0 2.0 0.00 0.00 0.00 987.8
20260507015017 45 0 0.0 0.0 0.00 0.00 0.00 987.8
20260507014514 46 267 0.0 0.0 0.00 0.00 0.00 987.8
20260507014018 46 155 0.0 0.0 0.00 0.00 0.00 987.8
20260507013518 46 189 0.0 3.0 0.00 0.00 0.00 987.8
20260507013025 46 243 0.0 0.0 0.00 0.00 0.00 987.8
20260507012514 46 126 0.0 0.0 0.00 0.00 0.00 987.8
20260507012016 47 297 0.0 4.0 0.00 0.00 0.00 987.8
20260507011518 47 13 0.0 0.0 0.00 0.00 0.00 987.8
20260507011020 47 213 0.0 6.0 0.00 0.00 0.00 987.8
20260507010514 47 186 0.0 0.0 0.00 0.00 0.00 987.8
20260507010024 47 169 0.0 3.0 0.00 0.00 0.00 987.8
20260507005515 48 276 0.0 0.0 0.00 0.00 0.00 987.8
20260507005016 48 185 0.0 0.0 0.00 0.00 0.00 987.8
20260507004513 48 242 3.0 0.0 0.00 0.00 0.00 987.8
20260507004013 49 319 4.0 3.0 0.00 0.00 0.00 987.8
20260507003515 49 245 0.0 3.0 0.00 0.00 0.00 987.8
20260507003044 49 284 4.0 10.0 0.00 0.00 0.00 987.8
20260507002514 49 253 5.0 3.0 0.00 0.00 0.00 987.8
20260507002015 50 213 2.0 0.0 0.00 0.00 0.00 987.8
20260507001541 50 257 4.0 3.0 0.00 0.00 0.00 986.8
20260507001020 50 279 2.0 4.0 0.00 0.00 0.00 986.8
20260507000514 50 333 3.0 2.0 0.00 0.00 0.00 986.8
20260507000019 51 186 2.0 3.0 0.00 0.00 0.00 987.8
20260506235513 51 261 4.0 4.0 0.00 0.00 0.00 987.8
20260506235022 51 250 5.0 2.0 0.00 0.00 0.00 987.8
20260506234535 52 288 5.0 9.0 0.00 0.00 0.00 986.8
20260506234021 52 337 4.0 4.0 0.00 0.00 0.00 986.8
20260506233535 52 294 0.0 2.0 0.00 0.00 0.00 986.8
20260506233018 53 220 0.0 0.0 0.00 0.00 0.00 986.8
20260506232513 53 187 6.0 4.0 0.00 0.00 0.00 986.8
20260506232015 53 238 2.0 8.0 0.00 0.00 0.00 986.8
20260506231513 53 252 0.0 0.0 0.00 0.00 0.00 986.8
20260506231035 53 210 0.0 0.0 0.00 0.00 0.00 986.8
20260506230516 53 198 5.0 6.0 0.00 0.00 0.00 986.8
20260506230015 53 348 0.0 2.0 0.00 0.00 0.00 986.8
20260506225513 53 287 0.0 2.0 0.00 0.00 0.00 986.8
20260506225013 53 287 2.0 2.0 0.00 0.00 0.00 986.8
20260506224516 53 331 0.0 4.0 0.00 0.00 0.00 986.8
20260506224013 54 220 3.0 4.0 0.00 0.00 0.00 986.8
20260506223515 54 304 4.0 6.0 0.00 0.00 0.00 986.8
20260506223025 54 343 3.0 3.0 0.00 0.00 0.00 986.8
20260506222521 54 300 4.0 3.0 0.00 0.00 0.00 986.8
20260506222018 54 341 6.0 0.0 0.00 0.00 0.00 986.8
20260506221513 54 196 3.0 0.0 0.00 0.00 0.00 986.8
20260506221017 54 345 4.0 4.0 0.00 0.00 0.00 986.8
20260506220543 54 205 2.0 6.0 0.00 0.00 0.00 986.8
20260506220016 54 110 3.0 3.0 0.00 0.00 0.00 986.8
20260506215515 54 353 0.0 4.0 0.00 0.00 0.00 986.8
20260506215024 54 267 0.0 0.0 0.00 0.00 0.00 986.8
20260506214513 55 296 3.0 4.0 0.00 0.00 0.00 986.8
20260506214014 55 189 4.0 6.0 0.00 0.00 0.00 986.8
20260506213514 55 322 4.0 3.0 0.00 0.00 0.00 986.8
20260506213025 55 342 4.0 8.0 0.00 0.00 0.00 986.8
20260506212514 56 202 2.0 5.0 0.00 0.00 0.00 986.8
20260506212021 56 200 4.0 5.0 0.00 0.00 0.00 986.8
20260506211515 56 249 3.0 0.0 0.00 0.00 0.00 986.8
20260506211014 56 46 0.0 0.0 0.00 0.00 0.00 986.8
20260506210523 57 9 3.0 0.0 0.00 0.00 0.00 986.8
20260506210025 57 180 0.0 3.0 0.00 0.00 0.00 986.8
20260506205534 57 192 0.0 3.0 0.00 0.00 0.00 986.8
20260506205014 57 203 3.0 6.0 0.00 0.00 0.00 986.8
20260506204513 58 223 2.0 5.0 0.00 0.00 0.00 986.8
20260506204013 58 202 2.0 8.0 0.00 0.00 0.00 986.8
20260506203518 58 243 4.0 0.0 0.00 0.00 0.00 986.8
20260506203014 58 219 0.0 0.0 0.00 0.00 0.00 986.8
20260506202517 58 162 3.0 4.0 0.00 0.00 0.00 986.8
20260506202015 59 239 0.0 4.0 0.00 0.00 0.00 986.8
20260506201513 59 193 3.0 4.0 0.00 0.00 0.00 986.8
20260506201014 60 216 4.0 6.0 0.00 0.00 0.00 986.8
20260506200515 59 219 5.0 5.0 0.00 0.00 0.00 986.8
20260506200014 60 353 0.0 0.0 0.00 0.00 0.00 986.8
20260506195514 61 222 7.0 3.0 0.00 0.00 0.00 986.8
20260506195015 61 174 7.0 6.0 0.00 0.00 0.00 986.8